Location: ????????
(55.0097°N, 38.5678°E)
Time: 23:58:43
(UTC+00:00)

NOSS 3-1 (C) - Pass Details

Date: 23 December 2025
Orbit: 618 x 1583 km, 63.4° (Epoch: 10 January)

Event Time Altitude Azimuth Distance (km) Brightness Sun altitude
Rises 15:07:43 0° 204° (SSW) 2,967 6.7 -16.6°
Reaches altitude 10° 15:09:54 10° 198° (SSW) 2,123 5.8 -16.9°
Maximum altitude 15:14:27 46° 126° (SE) 1,027 3.4 -17.5°
Enters shadow 15:16:34 31° 75° (ENE) 1,401 3.8 -17.8°
